[[{"header":{"parameterUnit":"m.s-1","parameterCategory":1,"la1":30.2991,"la2":30.254,"lo1":-89.0895,"lo2":-89.0444,"dy":0.0017,"dx":0.0017,"nx":28,"ny":28,"refTime":"2025-04-12T21:00:00:Z","depth":0,"parameterNumber":2,"parameterNumberName":"U-component_of_WINDS"},"data":[0,0,0,0,0,0,0,0,0,0,0,0,0,0,0,0,0,0,0,0,0,0,0,0,0,0,0,0,0,0,0,0,0,0,0,0,0,0,0,0,0,0,0,0,0,0,0,0,0,0,0,0,0,0,0,0,0,0,1.5144,1.5144,0,1.5143,1.5143,1.5143,1.5057,1.5055,1.5053,1.5051,1.5054,1.5056,1.5058,0,0,0,0,0,0,0,0,0,0,0,0,0,1.5073,1.5075,1.5144,1.5144,1.5144,1.5143,1.5143,1.5143,1.5058,1.5055,1.5052,1.5049,1.5053,1.5056,1.5058,0,0,0,0,0,0,0,0,0,0,0,0,0,1.5091,1.5076,1.5144,1.5101,1.5097,1.5143,1.5143,1.5143,1.5058,1.5055,1.5051,1.5048,1.5052,1.5055,1.5059,1.5146,0,0,1.5069,1.507,0,0,0,0,0,0,0,0,1.509,1.5094,1.5107,1.5104,1.51,1.5096,1.5119,1.5144,1.5059,1.5073,1.505,1.5047,1.5071,1.5072,1.508,1.5146,1.5146,1.5069,1.5071,1.5072,1.5073,0,0,0,0,0,0,0,1.5089,1.5094,1.5143,1.5107,1.5103,1.5082,1.5081,1.5123,1.5091,1.5072,1.5065,1.5066,1.5068,1.5077,1.5079,1.5147,1.5069,1.5072,1.5074,1.5075,1.5281,1.5285,0,0,0,0,0,0,1.5093,1.5093,1.5143,1.5143,1.5086,1.5086,1.5085,1.5101,1.509,1.5085,1.5069,1.5062,1.5073,1.5076,1.5079,1.5179,1.5072,1.5075,1.5077,1.5278,1.5282,1.5286,0,0,0,0,0,0,1.5092,1.5099,1.5143,1.5116,1.512,1.5091,1.511,1.5103,1.5111,1.5088,1.5082,1.5084,1.507,1.5074,1.5129,1.5178,1.5077,1.508,1.5274,1.5279,1.5284,1.538,0,0,0,0,0,0,1.5091,1.5099,1.5132,1.5118,1.5122,1.5193,1.5113,1.5105,1.5116,1.5108,1.51,1.5096,1.5068,1.5125,1.5132,1.518,1.5082,1.5269,1.5276,1.5282,1.5373,1.5388,1.5402,0,0,0,0,0,1.5088,1.5161,1.5134,1.5141,1.5163,1.5196,1.5199,1.5164,1.5121,1.5153,1.5138,1.5096,1.5171,1.5131,1.5139,1.5189,1.5266,1.5274,1.5282,1.5366,1.5385,1.5401,0,0,0,0,0,0,1.5184,1.5158,1.5128,1.5198,1.52,1.5182,1.5222,1.5186,1.5201,1.5192,1.5149,1.5148,1.5209,1.5204,1.516,1.5271,1.5211,1.5221,1.5272,1.529,1.5304,1.5304,1.5085,0,0,0,0,0,1.5212,1.5241,1.5217,1.5281,1.5283,1.5253,1.5266,1.5239,1.5239,1.524,1.5229,1.5232,1.5256,1.5273,1.5294,1.5371,1.5368,1.5409,1.5424,1.5436,1.5445,1.5483,1.5501,1.5312,1.5312,1.5312,0,0,1.5273,1.5262,1.5284,1.53,1.5298,1.5329,1.5254,1.5291,1.5313,1.5246,1.5296,1.5288,1.5288,1.5354,1.5383,1.5352,1.5496,1.5446,1.5455,1.5458,1.5493,1.5511,1.5527,1.5317,1.5316,1.5316,0,0,1.5398,1.5394,1.5445,1.5443,1.544,1.5419,1.5431,1.5418,1.5409,1.5458,1.5408,1.5434,1.5477,1.5478,1.5485,1.5607,1.5568,1.5615,1.5691,1.5728,1.5743,1.5756,1.5798,1.5814,1.5624,1.5624,1.5624,0,1.5475,1.5518,1.5476,1.5515,1.5523,1.5461,1.5512,1.5513,1.5518,1.5525,1.549,1.554,1.5536,1.56,1.5629,1.5637,1.5649,1.5616,1.5744,1.5757,1.5768,1.5808,1.5824,1.563,1.5629,1.5629,1.5628,0,1.561,1.5641,1.5683,1.5686,1.5698,1.5743,1.5709,1.5726,1.5697,1.5679,1.5729,1.5721,1.5738,1.5752,1.5725,1.5811,1.5792,1.5752,1.569,1.5792,1.5829,1.5844,1.5638,1.5636,1.5634,1.5633,0,0,1.5798,1.5775,1.5791,1.579,1.5781,1.5804,1.5845,1.5859,1.5875,1.588,1.5913,1.5948,1.5909,1.5917,1.5889,1.5922,1.6017,1.5877,1.5876,1.5902,1.611,1.614,1.6159,1.5991,1.5994,1.5996,1.6109,0,1.5918,1.5986,1.5948,1.6022,1.6048,1.5988,1.6024,1.6022,1.6006,1.6026,1.6009,1.6034,1.5982,1.5985,1.6016,1.5999,1.6058,1.599,1.6021,1.6023,1.6023,1.6178,1.6211,1.6318,1.6124,1.6126,1.6128,0,1.6068,1.6076,1.6151,1.6133,1.6143,1.6176,1.6184,1.6205,1.6201,1.6186,1.6193,1.6156,1.6195,1.6133,1.6186,1.6141,1.6151,1.6144,1.6148,1.6149,1.6082,1.6183,1.6352,1.6368,1.615,1.6148,1.6147,0,1.6196,1.6225,1.6273,1.6275,1.6256,1.6279,1.6273,1.6265,1.6275,1.6283,1.6289,1.6302,1.631,1.6321,1.6288,1.6247,1.6345,1.6281,1.6334,1.6335,1.6358,1.6357,1.653,1.6365,1.6365,1.6365,1.6364,0,1.6334,1.6382,1.6329,1.6359,1.6411,1.6367,1.6419,1.6406,1.6399,1.6425,1.6375,1.6401,1.6356,1.6377,1.6352,1.6399,1.6403,1.6392,1.6385,1.6397,1.6398,1.6403,1.6394,1.6369,1.6368,1.6367,1.6366,0,1.6486,1.6453,1.65,1.6477,1.6472,1.6511,1.6491,1.6517,1.6496,1.653,1.6535,1.6503,1.6525,1.6493,1.6513,1.6495,1.6559,1.6541,1.656,1.6554,1.6608,1.6603,1.6791,1.6813,1.6635,1.6636,1.6638,0,1.6576,1.661,1.6589,1.6602,1.6597,1.6619,1.6628,1.6585,1.6597,1.6593,1.6619,1.6636,1.6648,1.6686,1.6665,1.6679,1.666,1.6725,1.6662,1.6672,1.666,1.6658,1.6661,1.6738,1.674,1.6742,1.6743,0,1.6738,1.6719,1.6733,1.6741,1.6752,1.6757,1.6758,1.6771,1.6726,1.6741,1.6762,1.677,1.6788,1.6806,1.6813,1.6807,1.6768,1.6763,1.6775,1.6788,1.6797,1.6791,1.6594,1.6759,1.6757,1.6756,1.6755,1.6755,1.6861,1.6888,1.6877,1.6893,1.6888,1.689,1.6912,1.6892,1.6908,1.6918,1.6892,1.6918,1.6911,1.6917,1.6915,1.6935,1.6907,1.6926,1.693,1.6935,1.6943,1.6793,1.6936,1.6936,1.6935,1.6935,1.6935,0,1.702,1.7009,1.7024,1.7025,1.7038,1.6997,1.6995,1.7009,1.7032,1.7027,1.7038,1.7061,1.7077,1.7055,1.7068,1.7088,1.707,1.7092,1.709,1.7089,1.6968,1.6955,1.7106,1.7106,1.7106,1.7106,1.7106,1.7106,1.7104,1.7147,1.7126,1.7166,1.7154,1.7178,1.718,1.7181,1.7176,1.7203,1.7215,1.72,1.7188,1.7199,1.7211,1.7205,1.7211,1.724,1.7227,1.7115,1.7098,1.7082,1.707,1.7242,1.7242,1.7346,1.7347,1.7348]},{"header":{"parameterUnit":"m.s-1","parameterCategory":1,"la1":30.2991,"la2":30.254,"lo1":-89.0895,"lo2":-89.0444,"dy":0.0017,"dx":0.0017,"nx":28,"ny":28,"refTime":"2025-04-12T21:00:00:Z","depth":0,"parameterNumber":3,"parameterNumberName":"V-component_of_WINDS"},"data":[0,0,0,0,0,0,0,0,0,0,0,0,0,0,0,0,0,0,0,0,0,0,0,0,0,0,0,0,0,0,0,0,0,0,0,0,0,0,0,0,0,0,0,0,0,0,0,0,0,0,0,0,0,0,0,0,0,0,5.3148,5.3149,0,5.3239,5.324,5.3241,5.3198,5.3196,5.3194,5.3192,5.3279,5.3283,5.3288,0,0,0,0,0,0,0,0,0,0,0,0,0,5.2929,5.2933,5.3148,5.3149,5.315,5.3239,5.324,5.3241,5.3199,5.3196,5.3193,5.3191,5.3278,5.3283,5.3288,0,0,0,0,0,0,0,0,0,0,0,0,0,5.3022,5.2935,5.3147,5.314,5.314,5.3239,5.324,5.3242,5.3199,5.3196,5.3192,5.3189,5.3276,5.3282,5.3289,5.3399,0,0,5.3309,5.3312,0,0,0,0,0,0,0,0,5.3017,5.303,5.314,5.314,5.3141,5.3204,5.3195,5.3294,5.32,5.3177,5.3192,5.3188,5.3256,5.3265,5.3289,5.3403,5.3407,5.331,5.3314,5.3317,5.3319,0,0,0,0,0,0,0,5.3011,5.3026,5.3184,5.3141,5.3142,5.3129,5.3138,5.3214,5.3234,5.3178,5.3175,5.3187,5.3256,5.3283,5.3291,5.3408,5.331,5.3316,5.332,5.3323,5.3614,5.3618,0,0,0,0,0,0,5.3005,5.3021,5.3181,5.3186,5.3069,5.3136,5.3146,5.3187,5.3234,5.3237,5.319,5.3185,5.3273,5.3283,5.3294,5.3423,5.3317,5.3323,5.3327,5.3611,5.3615,5.3619,0,0,0,0,0,0,5.3001,5.302,5.3177,5.3103,5.3122,5.3143,5.3189,5.3191,5.3217,5.3243,5.3245,5.3214,5.3271,5.3284,5.3373,5.3426,5.3326,5.3332,5.3606,5.3612,5.3617,5.3685,0,0,0,0,0,0,5.2995,5.3019,5.3063,5.3104,5.3126,5.3257,5.3193,5.3195,5.323,5.3224,5.3266,5.3269,5.3269,5.3363,5.338,5.3433,5.3338,5.3602,5.3609,5.3615,5.3678,5.3693,5.3705,0,0,0,0,0,5.2987,5.3077,5.3065,5.3084,5.3182,5.326,5.3273,5.3272,5.3234,5.3277,5.3293,5.3268,5.3418,5.3373,5.3391,5.3447,5.3598,5.3607,5.3615,5.3672,5.369,5.3704,0,0,0,0,0,0,5.3039,5.3083,5.3069,5.3177,5.3215,5.3253,5.3307,5.3291,5.334,5.3332,5.3328,5.3337,5.3429,5.3447,5.3396,5.3555,5.3502,5.3514,5.3539,5.3556,5.3569,5.3561,5.3343,0,0,0,0,0,5.3063,5.3126,5.316,5.3251,5.3271,5.3286,5.332,5.3317,5.3356,5.3371,5.3394,5.3431,5.3486,5.3522,5.3575,5.3682,5.3688,5.3729,5.3742,5.3753,5.3763,5.3817,5.3835,5.3647,5.3647,5.3647,0,0,5.3113,5.3145,5.3184,5.3262,5.3291,5.3353,5.33,5.3368,5.3413,5.3381,5.3466,5.3484,5.3525,5.3622,5.3666,5.364,5.3817,5.3764,5.3772,5.3776,5.3828,5.3846,5.3861,5.3652,5.3651,5.3651,0,0,5.3236,5.3267,5.3345,5.3376,5.3423,5.3432,5.3451,5.3491,5.3502,5.3588,5.3564,5.3617,5.3713,5.3742,5.377,5.3903,5.388,5.392,5.3987,5.4041,5.4055,5.4069,5.4113,5.4129,5.393,5.393,5.393,0,5.3291,5.3386,5.3387,5.3457,5.349,5.3466,5.3543,5.3573,5.3633,5.3655,5.3626,5.3745,5.3771,5.3874,5.3906,5.393,5.3949,5.3914,5.4054,5.4067,5.4079,5.4121,5.4138,5.3935,5.3934,5.3934,5.3933,0,5.345,5.3516,5.3574,5.3634,5.3674,5.3747,5.3757,5.3797,5.379,5.3801,5.3887,5.3918,5.3975,5.4,5.3993,5.4101,5.4083,5.4054,5.4,5.4101,5.414,5.4157,5.3941,5.3939,5.3938,5.3937,0,0,5.3607,5.3667,5.3687,5.3713,5.3762,5.3812,5.3883,5.3941,5.3974,5.4016,5.4073,5.4155,5.4128,5.416,5.4156,5.4204,5.4303,5.4168,5.4169,5.419,5.442,5.4439,5.4458,5.429,5.4293,5.4295,5.4415,0,5.373,5.3857,5.3859,5.3974,5.4033,5.4011,5.4072,5.4108,5.412,5.417,5.4183,5.424,5.4202,5.4221,5.4267,5.4281,5.4348,5.4273,5.4339,5.4342,5.4327,5.4479,5.45,5.4612,5.4431,5.4434,5.4436,0,5.3891,5.394,5.4061,5.41,5.4125,5.418,5.4232,5.4281,5.432,5.4325,5.436,5.4349,5.4419,5.4365,5.4459,5.4407,5.4435,5.4446,5.445,5.4454,5.4393,5.4484,5.4648,5.4664,5.446,5.4458,5.4457,0,5.3989,5.4085,5.4169,5.4193,5.4241,5.428,5.4301,5.4337,5.4371,5.4415,5.4437,5.4489,5.4516,5.4556,5.4558,5.4519,5.4651,5.4598,5.4655,5.4655,5.4682,5.4679,5.4849,5.4705,5.4704,5.4704,5.4704,0,5.4125,5.4199,5.4214,5.4265,5.4347,5.4348,5.4428,5.4446,5.4478,5.453,5.4514,5.4563,5.4565,5.4614,5.4616,5.4692,5.4705,5.4709,5.4708,5.4709,5.4708,5.4725,5.4716,5.4708,5.4708,5.4707,5.4706,0,5.4247,5.426,5.435,5.4389,5.44,5.4458,5.449,5.4538,5.4549,5.4616,5.4631,5.4648,5.4706,5.4713,5.4779,5.478,5.4871,5.4863,5.4858,5.4856,5.4911,5.4904,5.5095,5.5119,5.4961,5.4963,5.4964,0,5.4331,5.4388,5.4433,5.4468,5.4492,5.4549,5.4583,5.4587,5.4623,5.467,5.4712,5.4768,5.4813,5.4905,5.4921,5.4972,5.4963,5.5027,5.497,5.4968,5.496,5.4956,5.496,5.5036,5.5038,5.5039,5.5041,0,5.4479,5.4482,5.4534,5.4588,5.463,5.4673,5.4712,5.4741,5.4749,5.479,5.4849,5.4884,5.4953,5.5007,5.5057,5.5076,5.5058,5.5059,5.5074,5.5074,5.5067,5.5068,5.4884,5.5054,5.5052,5.5051,5.5051,5.505,5.4582,5.4631,5.467,5.4727,5.4758,5.4795,5.4841,5.4859,5.4909,5.4966,5.4965,5.5029,5.5064,5.5129,5.5152,5.52,5.5179,5.5202,5.5207,5.5212,5.5216,5.5062,5.521,5.5209,5.5209,5.5209,5.5208,0,5.4726,5.475,5.4803,5.486,5.4904,5.4887,5.493,5.4967,5.5025,5.506,5.5105,5.5172,5.5225,5.5246,5.5297,5.5331,5.5324,5.5344,5.534,5.5344,5.5233,5.5214,5.5349,5.5349,5.5349,5.5349,5.5349,5.5349,5.4806,5.4886,5.4894,5.4988,5.5011,5.5076,5.5101,5.5134,5.5162,5.5238,5.5283,5.5297,5.5326,5.5378,5.5425,5.543,5.5448,5.547,5.5471,5.5367,5.5352,5.5339,5.532,5.5475,5.5475,5.5577,5.5578,5.5579]}]]